Create Custom Reports and Graphics: Custom Report

Map - Northern Napa County

Map

15 Minute Data

Map - Southern Napa County

Map

15 Minute Data

Northeast Napa County

11 Stations

15 Minute Data | America/Los_Angeles
as of 5/4/26 11:37 AM PDT
Station Date Time Temp (°F) RH (%) Dew Pt (°F) Wind Spd (mph) Wind Dir (°) Wind Gust (mph) Latest Rain (In) Daily Rain (In) Daily Max Temp (°F) Daily Min Temp (°F)
Dollarhide 17B Remote 5/4/26 1130 68.0   7.7 53   17 50.4   0.1 - - - - - 68.0   6.4 44.2   4.0
Dollarhide 18A Remote 5/4/26 1130 62.6   4.0 65   8 50.6   0.6 - - - - - 63.2   4.5 42.0   8.2
Dollarhide 1AS Remote 5/4/26 1130 66.3   7.5 56   15 50.0   0.5 1.9   4.4 SW | 234 7.2   3.9 - - 66.4   6.8 44.7   5.9
Angwin 5/4/26 1130 57.3   9.4 62   38 44.5   3.4 2.8   0.8 SSE | 158 8.8   0.1 0.00 0.00 57.7   5.1 44.6   0.6
Lower Angwin (Pioneer) 5/4/26 1130 58.5   7.0 - - 4.2   0.7 SW | 228 9.8   0.3 - - 59.8   7.1 44.0   2.3
Lower Chiles Valley (Brown) 5/4/26 1130 61.0   5.0 60   9 47.1   0.9 3.6   1.7 SW | 215 8.5   3.6 0.00 0.00 62.4   5.7 43.5   6.1
Deer Park 5/4/26 1130 63.1   7.0 57   12 47.8   1.4 3.8   1.9 W | 280 13.4   3.9 0.00 0.00 63.1   6.2 46.6   4.2
Moss Creek Vineyard/Reservior 5/4/26 1115 63.0   2.6 54   6 46.1   0.4 - - - 0.00 0.00 64.5   3.0 43.2   6.2
Montesol 5/4/26 1130 59.3   5.9 - - - - - 0.00 0.00 60.6   6.8 41.4   3.4
Dollarhide Base 5/4/26 1130 65.8   5.3 54   19 48.8   2.9 3.1   2.5 S | 178 8.3   2.8 0.00 0.00 67.8   6.9 47.6   2.6
Pope Valley (Weeks Lake) 5/4/26 1130 66.6   7.3 47   16 45.8   1.2 2.4   1.9 SE | 146 6.4   3.3 0.00 0.00 67.3   7.3 41.3   4.5
Max     68.0 65 50.6 4.2 - 13.4 0.00 0.00 68.0 47.6
Avg     62.9 56 47.9 3.1 - 8.9 0.00 - - -
Min     57.3 47 44.5 1.9 - 6.4 0.00 0.00 57.7 41.3

Northern & Central Napa County

32 Stations

15 Minute Data | America/Los_Angeles
as of 5/4/26 11:37 AM PDT
Station Date Time Temp (°F) RH (%) Dew Pt (°F) Wind Spd (mph) Wind Dir (°) Wind Gust (mph) Latest Rain (In) Daily Rain (In) Daily Max Temp (°F) Daily Min Temp (°F)
Calistoga-North 5/4/26 1130 68.2   9.5 54   15 51.1   2.5 - - - 0.00 0.00 68.2   15.5 48.3   2.7
Stags Leap Dist (Chimney Rock) 5/4/26 1130 62.9   1.5 63   3 50.0   0.1 4.0   1.6 NW | 325 8.6   1.7 0.00 0.00 63.6   1.9 42.8   9.9
Diamond Mtn (McEachran) 5/4/26 1130 61.0   5.2 57   12 45.9   0.2 - - - - - 62.7   6.0 47.4   3.8
Diamond Mtn (Schramsberg) 5/4/26 1130 62.0   5.7 57   11 46.7   0.5 - - - 0.00 0.00 63.1   6.5 47.3   2.4
Stags Leap Dist (Silverado Vineyards) 5/4/26 1130 62.8   3.1 54   8 46.1   0.8 2.6   0.5 NW | 305 7.7   1.8 0.00 0.00 63.3   3.2 43.5   7.9
Oak Knoll-East (Ranch 53) 5/4/26 1130 64.5   0.4 53   1 46.8   0.8 2.3   1.5 S | 171 6.1   2.9 0.00 0.00 65.5   0.9 43.8   7.9
Rutherford-North (Mee Ln) 5/4/26 1130 64.0   4.2 57   4 48.7   2.1 1.9   2.1 SSW | 202 6.6   2.6 0.00 0.00 65.6   4.2 41.3   10.8
Frisinger Napa-NW 5/4/26 1130 62.6   1.0 60   0 48.6   1.0 3.9   3.5 ESE | 112 7.7   6.1 0.00 0.00 63.2   1.1 44.8   6.9
Napa-North (Ranch 29) 5/4/26 1130 61.4   0.4 61   3 47.8   1.6 1.5   3.7 NE | 34 4.0   7.8 0.00 0.00 62.0   0.4 44.4   8.8
St. Helena (NVV Office) 5/4/26 1130 63.5   4.1 - - 1.2   0.6 NNW | 334 3.7   3.4 0.00 0.00 64.7   5.0 46.0   7.4
Crossroads Ranch 5/4/26 1130 63.1   2.7 62   1 50.0   2.2 2.4   3.5 SE | 135 6.1   4.6 0.00 0.00 63.7   3.3 43.5   9.2
Oakville 5/4/26 1130 62.8   3.8 57   5 47.2   1.5 1.8   4.2 SW | 226 5.4   6.0 0.00 0.00 64.0   4.4 43.5   9.0
OV561-East 5/4/26 1130 62.5   2.9 - - - - - - - 63.0   2.9 44.2   8.7
OV518-West 5/4/26 1130 62.2   3.1 - - - - - - - 62.9   3.1 43.6   9.2
Napa-NW (Ranch 54) 5/4/26 1130 66.9   4.3 51   3 48.3   2.4 0.9   2.8 E | 91 3.9   5.7 0.00 0.00 68.0   5.1 45.3   6.5
Calistoga (Ranch 78) 5/4/26 1130 65.2   6.6 51   11 46.7   1.2 5.0   1.7 NW | 304 9.6   1.0 0.00 0.00 65.8   6.8 46.5   6.4
Yountville-SE (Ranch 85) 5/4/26 1130 63.1   1.7 58   2 48.3   0.7 3.2   0.5 N | 351 7.8   1.7 0.00 0.00 63.5   1.6 43.8   8.9
Yountville-South (Ranch 87) 5/4/26 1130 63.0   1.0 58   1 47.9   0.7 1.8   1.7 NW | 325 5.3   1.8 0.00 0.00 63.7   0.7 43.5   7.8
Rutherford Hill Estate 5/4/26 1130 63.1   4.0 60   6 49.0   1.4 2.4   0.1 W | 259 5.5   0.4 0.00 0.00 64.0   4.5 46.7   4.6
Rutherford (STS) 5/4/26 1130 64.9   3.0 64   3 52.4   1.5 2.4   1.7 ESE | 121 6.3   3.4 0.00 0.00 64.9   3.0 42.9   9.6
Borreo (Soda Canyon) 5/4/26 1130 61.1   3.5 57   8 45.6   0.0 3.8   0.5 NNW | 336 8.4   0.2 0.00 0.00 61.4   3.4 41.6   6.7
Oakville-NE (Ranch 88) 5/4/26 1130 63.4   3.2 55   2 47.2   2.0 1.8   3.0 ENE | 67 4.6   5.7 0.00 0.00 64.6   3.7 42.6   9.8
Soda Canyon 5/4/26 1130 62.5   1.2 65   1 50.4   0.6 2.5   1.6 SW | 227 6.5   3.2 0.00 0.00 63.8   1.6 40.5   11.6
Silver Oak OV 5/4/26 1130 63.0   3.5 60   3 49.1   2.1 2.7   3.0 SSW | 210 5.0   5.0 0.00 0.00 64.0   3.7 42.8   9.9
Tiara Fria (East St. Helena) 5/4/26 1130 63.0   4.0 57   7 47.5   0.5 2.1   3.0 SE | 134 4.7   5.2 0.00 0.00 63.2   3.8 45.7   7.6
To Kalon Remote (TKKE) 5/4/26 1130 65.3   4.4 - - - - - - - 66.4   4.6 42.9   10.2
To Kalon 5/4/26 1130 63.2   3.7 58   6 48.3   0.9 2.0   1.9 SE | 143 5.3   4.4 0.00 0.00 63.6   2.9 43.6   8.8
To Kalon Remote (TKN5) 5/4/26 1130 63.2   3.3 - - - - - - - 63.9   3.2 43.6   9.4
St. Helena-North 5/4/26 1130 66.7   7.9 48   12 46.4   1.6 1.7   0.4 NNE | 28 5.3   0.4 0.00 0.00 67.2   7.5 46.4   6.9
Twomey Calistoga 5/4/26 1130 67.3   8.5 54   11 50.2   3.1 3.9   0.2 NNW | 332 11.5   2.6 0.00 0.00 67.3   8.4 45.3   7.6
Wappo Hill Floor 5/4/26 1130 63.6   2.0 53   8 46.2   1.9 2.6   1.9 WNW | 283 6.4   2.4 0.00 0.00 64.4   2.2 42.2   9.9
Yountville (Ranch 67) 5/4/26 1130 64.7   5.4 49   10 45.4   0.3 2.2   2.9 SSW | 195 6.6   3.1 0.00 0.00 64.8   5.2 43.2   8.7
Max     68.2 65 52.4 5.0 - 11.5 0.00 0.00 68.2 48.3
Avg     63.6 57 48.1 2.5 - 6.3 0.00 - - -
Min     61.0 48 45.4 0.9 - 3.7 0.00 0.00 61.4 40.5

Southern Napa County

23 Stations

15 Minute Data | America/Los_Angeles
as of 5/4/26 11:37 AM PDT
Station Date Time Temp (°F) RH (%) Dew Pt (°F) Wind Spd (mph) Wind Dir (°) Wind Gust (mph) Latest Rain (In) Daily Rain (In) Daily Max Temp (°F) Daily Min Temp (°F)
Carneros (Milton Rd) 5/4/26 1130 64.5   3.9 53   9 47.0   0.7 - - - 0.00 0.00 65.0   3.5 42.1   11.2
Carneros Lower (Ranch 81) 5/4/26 1130 65.2   5.3 52   15 47.0   1.7 0.2   1.3 SSW | 196 3.5   2.3 0.00 0.00 65.2   3.4 42.6   10.4
Carneros Upper (Ranch 81) 5/4/26 1130 61.4   3.4 53   14 43.9   3.2 7.2   1.4 W | 259 12.6   2.7 - - 61.9   3.3 46.7   5.4
Carneros (Mitsuko) 5/4/26 1130 63.4   3.2 - - - - - - - 64.5   3.2 40.2   12.9
Mount George (Napa East) 5/4/26 1130 62.1   5.5 59   6 47.6   7.9 2.1   1.5 NNW | 335 5.0   4.5 0.00 0.00 66.2   1.5 44.4   14.0
Napa-East (Palmaz 300') 5/4/26 1130 63.0   2.9 55   4 46.7   0.7 2.1   2.1 WSW | 247 5.8   3.3 0.00 0.00 64.0   3.3 44.4   8.3
Napa-East (Palmaz 1200') 5/4/26 1130 56.9   1.6 69   2 46.7   0.9 2.7   0.7 W | 280 8.8   1.2 - - 57.7   1.2 41.0   7.4
Napa-East (Palmaz 1400') 5/4/26 1130 58.5   2.3 67   4 47.5   0.8 3.4   0.7 SW | 214 9.3   2.1 0.00 0.00 59.1   0.5 43.6   3.4
Dealy Lane (Ranch 80) 5/4/26 1130 63.6   3.6 50   9 44.8   1.1 2.5   0.5 WSW | 258 5.8   1.6 0.00 0.00 63.6   2.4 43.8   9.1
Suscol Mtn (Ranch 93) 5/4/26 1130 59.0   2.9 64   4 46.7   1.1 8.1   4.5 NW | 312 12.5   7.6 0.00 0.00 59.1   2.3 47.3   1.9
Carneros (Saintsbury) 5/4/26 1130 63.6   3.5 54   10 46.6   1.1 4.0   0.2 WSW | 258 8.6   0.3 0.00 0.00 64.9   3.4 43.1   9.2
Sugarloaf West 5/4/26 1130 63.7   4.1 53   15 46.2   2.9 4.0   1.6 WSW | 248 10.9   0.4 0.00 0.00 63.8   3.3 45.0   8.8
Suscol Upper (Ranch 92) 5/4/26 1130 60.0   3.3 63   5 47.5   1.1 4.6   3.1 W | 264 9.6   4.8 0.00 0.00 60.2   2.8 48.0   2.0
Stanly (Ranch 45) 5/4/26 1130 64.4   4.0 49   12 44.9   2.0 5.8   0.4 W | 268 10.5   0.9 0.00 0.00 64.9   3.9 42.8   10.2
Suscol Lower (Ranch 35) 5/4/26 1130 63.6   3.3 51   12 45.0   2.7 4.9   0.1 WNW | 282 11.2   1.6 0.00 0.00 64.0   2.9 45.1   7.7
Napa-South (Toyon Farms) 5/4/26 1130 62.8   3.3 62   8 49.5   0.2 0.6   3.2 W | 270 5.8   2.5 0.00 0.00 63.3   3.1 46.6   6.4
Toyon Remote 1 5/4/26 1130 65.1   3.5 - - - - - - - 67.7   4.0 39.4   12.7
Toyon Remote 2 5/4/26 1130 62.8   2.0 - - - - - - - 63.9   2.3 41.2   12.3
Toyon Remote 3 5/4/26 1130 65.4   3.4 - - - - - - - 68.0   4.8 42.7   10.5
Napa-West Lower (Truchard) 5/4/26 1130 64.6   2.2 52   5 46.4   0.6 - - - - - 66.2   1.9 40.7   10.3
Napa-West Upper (Truchard) 5/4/26 1130 62.1   2.1 57   6 46.6   0.6 4.5   1.1 SW | 222 11.2   1.1 0.00 0.00 63.3   1.9 45.6   5.8
Mt. Veeder 5/4/26 1130 58.0   2.7 60   9 44.4   1.0 2.1   0.3 NNE | 21 6.9   0.9 0.00 0.00 61.4   5.6 45.9   1.1
Wooden Valley 5/4/26 1130 60.1   2.2 58   5 45.2   0.1 4.8   1.4 SW | 223 10.1   2.3 0.00 0.00 60.6   2.2 43.2   6.6
Max     65.4 69 49.5 8.1 - 12.6 0.00 0.00 68.0 48.0
Avg     62.3 57 46.3 3.7 - 8.7 0.00 - - -
Min     56.9 49 43.9 0.2 - 3.5 0.00 0.00 57.7 39.4